Location: Riddle Hill
(39.7867°N, 89.7645°W)
Time: 21:43:05
(UTC+00:00)

COSMO-SKYMED 1 - Pass Details

Date: 29 October 2020
Orbit: 621 x 623 km, 97.9° (Epoch: 01 December)

Event Time Altitude Azimuth Distance (km) Brightness Sun altitude
Rises 23:32:01 0° 21° (NNE) 2,910 5.7 -6.8°
Reaches altitude 10° 23:34:21 10° 29° (NNE) 1,999 4.8 -7.2°
Maximum altitude 23:38:25 37° 98° (E) 963 3.1 -8.0°
Drops below altitude 10° 23:42:25 10° 166° (SSE) 1,983 5.1 -8.8°
Sets 23:44:43 0° 175° (S) 2,884 6.1 -9.2°
